Anaktuvuk Pass, AK

5:24 AM AKST on February 22, 2017 (GMT -0900)
Anaktuvuk Pass

Weather History for PAKP - October, 2012

Change the Weather History Date:

Sunday, October 14, 2012

  Actual Average Record
Temperature  
Mean Temperature 4 °F -  
Max Temperature 15 °F 12 °F 35 °F (2013)
Min Temperature -7 °F 3 °F -14 °F (1997)
Degree Days  
Heating Degree Days 61    
Moisture  
Dew Point -1 °F    
Average Humidity 73    
Maximum Humidity 79    
Minimum Humidity 62    
Precipitation  
Precipitation 0.00 in - - ()
Sea Level Pressure  
Sea Level Pressure 29.32 in    
Wind  
Wind Speed 3 mph (NE)    
Max Wind Speed 12 mph    
Max Gust Speed -    
Visibility 10 miles    
Events      
Averages and records for this station are not official NWS values.
T = Trace of Precipitation, MM = Missing Value Source: NWS Daily Summary

Daily Weather History Graph

Daily Weather History Graph

Search for Another Location

Airport or City:

Trip Planner

Search our weather history database for the weather conditions in past years. The results will help you decide how hot, cold, wet, or windy it might be!

Date:

Astronomy

Oct. 14, 2012 Rise Set
Actual Time 9:10 AM AKDT 6:33 PM AKDT
Civil Twilight 8:12 AM AKDT 7:30 PM AKDT
Nautical Twilight 7:08 AM AKDT 8:35 PM AKDT
Astronomical Twilight 6:00 AM AKDT 9:42 PM AKDT
Moon 8:22 AM AKDT (10/14) 5:46 PM AKDT (10/14)
Length of Visible Light 11h 18m
Length of Day
9h 23m
Waning Crescent, 1% of the Moon is Illuminated
Oct 14
Waning Crescent
Oct 15
New
Oct 21
First Quarter
Oct 29
Full
Nov 6
Last Quarter

Hourly Weather History & Observations

Time (AKDT) Temp. Windchill Dew Point Humidity Pressure Visibility Wind Dir Wind Speed Gust Speed Precip Events Conditions
12:16 AM 1.4 °F - -4.0 °F 78% 29.45 in 10.0 mi Calm Calm - N/A   Clear
12:36 AM 3.2 °F - -2.2 °F 78% 29.44 in 10.0 mi Calm Calm - N/A   Clear
12:56 AM 1.4 °F - -5.8 °F 72% 29.43 in 10.0 mi Calm Calm - N/A   Clear
1:16 AM 1.4 °F - -5.8 °F 72% 29.43 in 10.0 mi Calm Calm - N/A   Clear
1:36 AM 1.4 °F - -5.8 °F 72% 29.43 in 10.0 mi Calm Calm - N/A   Clear
1:56 AM -0.4 °F - -9.4 °F 66% 29.42 in 10.0 mi Calm Calm - N/A   Clear
2:16 AM -2.2 °F - -7.6 °F 78% 29.42 in 10.0 mi Calm Calm - N/A   Clear
2:36 AM -0.4 °F - -7.6 °F 72% 29.42 in 10.0 mi Calm Calm - N/A   Clear
2:56 AM -0.4 °F - -9.4 °F 66% 29.41 in 10.0 mi Calm Calm - N/A   Clear
3:16 AM -0.4 °F - -7.6 °F 72% 29.41 in 10.0 mi Calm Calm - N/A   Clear
3:36 AM -2.2 °F - -9.4 °F 71% 29.40 in 10.0 mi Calm Calm - N/A   Clear
3:56 AM -2.2 °F -10.4 °F -9.4 °F 71% 29.40 in 10.0 mi WSW 3.5 mph - N/A   Clear
4:16 AM -2.2 °F -10.4 °F -11.2 °F 66% 29.39 in 10.0 mi SSW 3.5 mph - N/A   Clear
4:36 AM -0.4 °F -8.3 °F -5.8 °F 78% 29.39 in 10.0 mi SSW 3.5 mph - N/A   Clear
4:56 AM -2.2 °F - -9.4 °F 71% 29.38 in 10.0 mi Calm Calm - N/A   Clear
5:16 AM -4.0 °F - -11.2 °F 71% 29.37 in 10.0 mi Calm Calm - N/A   Clear
5:36 AM -5.8 °F - -13.0 °F 71% 29.37 in 10.0 mi Calm Calm - N/A   Clear
5:56 AM -2.2 °F - -9.4 °F 71% 29.37 in 10.0 mi Calm Calm - N/A   Clear
6:16 AM -4.0 °F - -11.2 °F 71% 29.36 in 10.0 mi Calm Calm - N/A   Clear
6:36 AM -4.0 °F - -9.4 °F 78% 29.36 in 10.0 mi Calm Calm - N/A   Clear
6:56 AM -7.6 °F - -14.8 °F 71% 29.36 in 10.0 mi Calm Calm - N/A   Clear
7:16 AM -5.8 °F - -11.2 °F 77% 29.36 in 10.0 mi Calm Calm - N/A   Clear
7:36 AM -7.6 °F - -14.8 °F 71% 29.35 in 10.0 mi Calm Calm - N/A   Clear
7:56 AM -5.8 °F - -13.0 °F 71% 29.35 in 10.0 mi Calm Calm - N/A   Clear
8:16 AM -7.6 °F - -14.8 °F 71% 29.34 in 10.0 mi Calm Calm - N/A   Clear
8:36 AM -5.8 °F - -11.2 °F 77% 29.34 in 10.0 mi Calm Calm - N/A   Scattered Clouds
8:56 AM -4.0 °F - -9.4 °F 78% 29.34 in 10.0 mi Calm Calm - N/A   Overcast
9:16 AM -4.0 °F - -9.4 °F 78% 29.33 in 10.0 mi Calm Calm - N/A   Overcast
9:36 AM -0.4 °F - -5.8 °F 78% 29.33 in 10.0 mi Calm Calm - N/A   Overcast
9:56 AM 1.4 °F - -4.0 °F 78% 29.33 in 10.0 mi Calm Calm - N/A   Overcast
10:16 AM 3.2 °F -4.2 °F -2.2 °F 78% 29.32 in 10.0 mi North 3.5 mph - N/A   Overcast
10:36 AM 6.8 °F -4.8 °F 1.4 °F 79% 29.32 in 10.0 mi North 6.9 mph - N/A   Overcast
10:56 AM 6.8 °F -4.8 °F -0.4 °F 72% 29.31 in 10.0 mi North 6.9 mph - N/A   Overcast
11:16 AM 8.6 °F -1.3 °F 1.4 °F 73% 29.31 in 10.0 mi North 5.8 mph - N/A   Overcast
11:36 AM 8.6 °F 0.1 °F 1.4 °F 73% 29.30 in 10.0 mi North 4.6 mph - N/A   Overcast
11:56 AM 10.4 °F 0.8 °F 3.2 °F 73% 29.30 in 10.0 mi North 5.8 mph - N/A   Overcast
12:16 PM 12.2 °F 6.1 °F 5.0 °F 73% 29.30 in 10.0 mi North 3.5 mph - N/A   Overcast
12:36 PM 10.4 °F -0.4 °F 1.4 °F 67% 29.29 in 10.0 mi North 6.9 mph - N/A   Overcast
1:16 PM 10.4 °F 0.8 °F 1.4 °F 67% 29.29 in 10.0 mi North 5.8 mph - N/A   Overcast
1:36 PM 10.4 °F -1.5 °F 3.2 °F 73% 29.29 in 10.0 mi North 8.1 mph - N/A   Overcast
1:56 PM 10.4 °F -1.5 °F 3.2 °F 73% 29.29 in 10.0 mi North 8.1 mph - N/A   Overcast
2:16 PM 12.2 °F -0.2 °F 6.8 °F 79% 29.28 in 10.0 mi ENE 9.2 mph - N/A   Overcast
2:36 PM 14.0 °F 2.9 °F 5.0 °F 67% 29.28 in 10.0 mi NE 8.1 mph - N/A   Overcast
2:56 PM 12.2 °F -0.2 °F 5.0 °F 73% 29.28 in 10.0 mi ENE 9.2 mph - N/A   Overcast
3:16 PM 12.2 °F -0.2 °F 5.0 °F 73% 29.28 in 10.0 mi ENE 9.2 mph - N/A   Overcast
3:36 PM 12.2 °F -1.8 °F 5.0 °F 73% 29.28 in 10.0 mi ENE 11.5 mph - N/A   Overcast
3:56 PM 12.2 °F -1.0 °F 5.0 °F 73% 29.28 in 10.0 mi ENE 10.4 mph - N/A   Overcast
4:16 PM 14.0 °F 0.5 °F 5.0 °F 67% 29.27 in 10.0 mi ENE 11.5 mph - N/A   Overcast
4:36 PM 12.2 °F -0.2 °F 5.0 °F 73% 29.28 in 10.0 mi ENE 9.2 mph - N/A   Overcast
4:56 PM 12.2 °F -1.0 °F 6.8 °F 79% 29.28 in 10.0 mi ENE 10.4 mph - N/A   Overcast
5:16 PM 12.2 °F 0.7 °F 6.8 °F 79% 29.28 in 10.0 mi NE 8.1 mph - N/A   Overcast
5:36 PM 12.2 °F -0.2 °F 6.8 °F 79% 29.27 in 10.0 mi ENE 9.2 mph - N/A   Overcast
5:56 PM 12.2 °F 0.7 °F 6.8 °F 79% 29.28 in 10.0 mi NE 8.1 mph - N/A   Overcast
6:16 PM 12.2 °F 0.7 °F 6.8 °F 79% 29.28 in 10.0 mi NE 8.1 mph - N/A   Overcast
6:36 PM 12.2 °F 2.9 °F 6.8 °F 79% 29.27 in 10.0 mi NE 5.8 mph - N/A   Overcast
6:56 PM 12.2 °F -0.2 °F 6.8 °F 79% 29.27 in 10.0 mi ENE 9.2 mph - N/A   Overcast
7:16 PM 12.2 °F -0.2 °F 6.8 °F 79% 29.27 in 10.0 mi ENE 9.2 mph - N/A   Overcast
7:36 PM 12.2 °F -0.2 °F 6.8 °F 79% 29.27 in 10.0 mi ENE 9.2 mph - N/A   Overcast
7:56 PM 12.2 °F 0.7 °F 6.8 °F 79% 29.27 in 10.0 mi ENE 8.1 mph - N/A   Overcast
8:16 PM 14.0 °F 1.2 °F 6.8 °F 73% 29.27 in 10.0 mi ENE 10.4 mph - N/A   Overcast
8:36 PM 14.0 °F 2.9 °F 6.8 °F 73% 29.27 in 10.0 mi ENE 8.1 mph - N/A   Overcast
8:56 PM 14.0 °F 1.2 °F 6.8 °F 73% 29.27 in 10.0 mi NE 10.4 mph - N/A   Overcast
9:16 PM 14.0 °F 2.9 °F 6.8 °F 73% 29.27 in 10.0 mi ENE 8.1 mph - N/A   Overcast
9:36 PM 14.0 °F 2.9 °F 6.8 °F 73% 29.27 in 10.0 mi NE 8.1 mph - N/A   Overcast
9:56 PM 14.0 °F 2.0 °F 6.8 °F 73% 29.26 in 10.0 mi ENE 9.2 mph - N/A   Overcast
10:16 PM 14.0 °F 2.0 °F 5.0 °F 67% 29.27 in 10.0 mi ENE 9.2 mph - N/A   Overcast
10:36 PM 14.0 °F 1.2 °F 6.8 °F 73% 29.27 in 10.0 mi NE 10.4 mph - N/A   Overcast
10:56 PM 14.0 °F 2.0 °F 6.8 °F 73% 29.27 in 10.0 mi NE 9.2 mph - N/A   Overcast
11:16 PM 15.8 °F 4.2 °F 5.0 °F 62% 29.27 in 10.0 mi NE 9.2 mph - N/A   Overcast
11:36 PM 14.0 °F 2.0 °F 5.0 °F 67% 29.27 in 10.0 mi NE 9.2 mph - N/A   Overcast
11:56 PM 14.0 °F 1.2 °F 6.8 °F 73% 29.27 in 10.0 mi NE 10.4 mph - N/A   Overcast